Overview Statistics Trail Chart Weather Telemetry Raw packets
 

This is the latest recevied weather packets stored in our database for station/object SV9TNF-56. If no packets are shown the sender has not sent any weather packets the latest 10 day(s).

<< 70 71 72 73 74 75 76 >>
Time Temp. Humidity Pressure Rain* Wind** Luminosity Snow
1788164563 25.56° C 64% 1019.6 hPa 0 mm 4.47 m/s, 210° - -
1788164263 25.56° C 63% 1019.3 hPa 0 mm 11.18 m/s, 109° - -
1788163963 25.56° C 66% 1019.3 hPa 0 mm 19.67 m/s, 271° - -
1788163663 25.56° C 64% 1019.3 hPa 0 mm 20.56 m/s, 265° - -
1788163363 25.56° C 62% 1019.6 hPa 0 mm 13.86 m/s, 276° - -
1788163063 25.56° C 62% 1019.3 hPa 0 mm 17.88 m/s, 154° - -
1788162762 25.56° C 61% 1019.3 hPa 0 mm 13.86 m/s, 31° - -
1788162463 26.11° C 60% 1019.3 hPa 0 mm 8.05 m/s, 250° - -
1788162162 26.11° C 60% 1019.3 hPa 0 mm 11.18 m/s, 228° - -
1788161862 25.56° C 61% 1019.3 hPa 0 mm 8.05 m/s, 148° - -
1788161562 25.56° C 61% 1019.3 hPa 0 mm 21.01 m/s, 288° - -
1788161262 25.56° C 62% 1019.3 hPa 0 mm 9.83 m/s, 264° - -
1788160962 26.11° C 63% 1019 hPa 0 mm 14.31 m/s, 258° - -
1788160662 25.56° C 65% 1019 hPa 0 mm 12.07 m/s, 270° - -
1788160362 25.56° C 63% 1019 hPa 0 mm 16.09 m/s, 317° - -
1788160061 25.56° C 63% 1019 hPa 0 mm 5.81 m/s, 259° - -
1788159762 25.56° C 64% 1019 hPa 0 mm 4.92 m/s, 67° - -
1788159461 25.56° C 64% 1019 hPa 0 mm 8.49 m/s, 294° - -
1788159161 25.56° C 66% 1019 hPa 0 mm 4.92 m/s, 270° - -
1788158861 25.56° C 64% 1019 hPa 0 mm 3.13 m/s, 122° - -
1788158561 25.56° C 65% 1019 hPa 0 mm 3.58 m/s, 94° - -
1788158261 25.56° C 65% 1019 hPa 0 mm 12.07 m/s, 109° - -
1788157961 25.56° C 66% 1019 hPa 0 mm 4.47 m/s, 144° - -
1788157661 25.56° C 65% 1019 hPa 0 mm 6.26 m/s, 127° - -
1788157360 25.56° C 64% 1019 hPa 0 mm 1.79 m/s, 222° - -

* Rain latest hour (hover to see other rain measurements)
** Current wind speed in m/s (hover to see current wind gust speed)